{"data":{"norad_id":43767,"epoch":"2026-09-19T20:09:08.446176Z","epoch_age_seconds":71400,"freshness":"FRESH","line1":"1 43767U 18099K   26262.83968109  .00002424  00000+0  14030-3 0  9998","line2":"2 43767  97.3985 303.0459 0009156  43.1702 317.0246 15.13125543426715","mean_motion":15.13125543,"eccentricity":0.0009156,"inclination_deg":97.3985,"raan_deg":303.0459,"arg_perigee_deg":43.1702,"mean_anomaly_deg":317.0246,"bstar":0.0001403,"rev_number":42671,"period_min":95.167252093635,"perigee_km":520.3530789971,"apogee_km":532.99717096037,"semimajor_km":6904.8121249787,"source":"CELESTRAK","updated_at":"2026-09-20T09:00:48.033426Z"}}